STARLINK-35553, 66120

Orbit data source: Space-Track

STARLINK-35553, 66120 is a payload satellite owned by SpaceX/Seattle (US) in LEO that was launched on Wed, 22 Oct 2025 UTC via an FALCON 9 launch vehicle from the Air Force Western Test Range (AFWTR). Payload-class satellites include a variety of spacecraft equipped with specific instruments for various scientific and technological missions. These include communications satellites like Starlink; space stations such as the ISS; scientific satellites like the Hubble; Earth observation satellites from companies like Planet Labs, Umbra, and HawkEye 360; GPS; miniature CubeSats for education and research; and military/defense satellites.

Loading next visibility...
Identifier
66120, 2025-237G
Orbit
LEO
Country
Flag of USUS
Related business
Manufacturer
SpaceX/Seattle
Mission
Operational spacecraft
Bus & Motor
STARLINK V2MO, Unknown motor
Mass
575 kg wet, ~530 kg dry
Launch date (UTC)
2025-10-22 (2 weeks ago)
Launch vehicle
FALCON 9
Launch site
Air Force Western Test Range (AFWTR)
Object type
Payload
Rocket body
Debris
Shape & HBR
Unknown shape, 17.7 m
Radar Cross Section
RCS unknown

Expand to show TLE details & history
Last TLE update: 16 hours ago

TLE from 16 hours ago
0 STARLINK-35553
1 66120U 25237G   25311.25001157 -.01990720  00000-0 -15401-1 0  9999
2 66120  53.1596 255.9621 0001159  76.2626  56.3969 15.74145260  3771
Epoch: 2025-11-07T06:00Z
TLE epoch observation values (Epoch: 2025-11-07T06:00:00.999Z)
Latitude
36.1655°
Longitude
-93.73317°
Altitude
349.434 km
Speed
7.704 km/s
True Right ascension
02h 51m 52s
True Declination
35° 59' 31"
Sunlit
Object was in full shadow at epoch
Visualization orbit readout
Latitude
Unknown
Longitude
Unknown
Altitude
Unknown
Speed
Unknown
Apparent Right ascension
Unknown
Apparent Declination
Unknown
Sunlit
N/A
Visualization observer readout
Local Sidereal Time
17:59:24
Azimuth
Unknown
Elevation
Unknown
Doppler factor
Unknown
Orbital elements
Apogee altitude
348.105 km
Perigee altitude
346.546 km
Semi-major axis
6,725.463 km
Eccentricity
0.00012
Inclination
53.1596°
RAAN
255.9621°
Arg. of periapsis
76.2626°
True anomaly
56.40796°
Mean anomaly
56.3969°
Eccentric anomaly
56.40243°
Mean motion
3.93514 °/min
Orbital period
91.48 mins
BSTAR
-0.015401
Loading maneuver chart data...
Computing Atmospheric mass density...
Loading historical data...
Loading historical data...
Loading historical data...
Loading historical data...
Loading historical data...
Loading historical data...
Loading historical data...

Documentation

Showing up to 5 results
|